Location: Unspecified
(0.0000°N, 0.0000°E)
Time: 04:32:39
(UTC+00:00)

CZ-6A DEB - Pass Details

Date: 14 October 2025
Orbit: 818 x 870 km, 98.8° (Epoch: 17 November)

Event Time Altitude Azimuth Distance (km) Brightness Sun altitude
Rises 04:35:47 0° 49° (NE) 3,418 ? -17.4°
Reaches altitude 10° 04:39:25 10° 73° (ENE) 2,474 ? -16.5°
Maximum altitude 04:42:07 14° 103° (ESE) 2,200 ? -15.8°
Drops below altitude 10° 04:44:49 10° 133° (SE) 2,462 ? -15.1°
Sets 04:48:22 0° 157° (SSE) 3,387 ? -14.3°
